Wind_Speed
55 56 59 60 61 60 61 62 65 68 71 74 78 81 82 83 87 90 89 77 67 62 54 44 44 43 40 38 37 36 37 36 37 39 37 40 44 48 51 52 55 57 60
54 57 58 58 59 59 60 61 65 69 71 74 80 79 81 85 90 89 84 70 64 61 50 42 40 36 31 30 31 31 33 34 35 36 38 39 41 43 48 49 52 52 56
52 53 56 57 58 59 60 62 65 68 71 77 77 78 83 88 88 83 73 68 65 58 45 37 33 31 31 32 33 33 36 39 41 43 46 46 48 46 48 49 53 55 59
52 53 56 57 57 58 60 61 65 67 70 74 76 79 84 86 84 76 70 68 64 54 43 36 35 36 36 36 38 40 43 44 45 46 48 49 49 50 50 53 56 56 57
53 54 54 56 55 57 58 62 64 68 72 74 76 78 82 82 81 74 71 67 59 50 44 39 40 42 42 43 45 48 51 52 53 51 50 49 50 52 53 55 56 55 52
51 53 54 54 54 57 57 60 64 68 72 70 73 80 80 80 81 73 71 62 53 50 45 41 42 45 48 49 53 54 55 57 56 52 52 51 52 52 53 51 49 47 45
47 50 51 52 54 57 58 60 64 69 66 71 75 79 79 83 80 71 68 58 49 47 47 46 44 45 48 50 52 52 51 51 53 53 53 52 51 50 47 45 43 39 34
45 46 47 49 54 55 58 61 64 60 66 72 70 73 79 81 72 68 65 56 50 48 48 47 45 45 47 49 49 49 48 50 51 53 52 51 48 44 42 40 34 29 23
46 48 46 50 53 54 57 60 60 61 64 70 73 77 83 78 69 68 63 53 49 47 46 47 47 45 46 48 49 50 50 50 51 52 50 46 42 39 37 30 23 18 16
44 49 48 50 50 54 57 58 58 58 63 71 76 79 85 79 69 68 62 54 49 46 43 46 49 50 52 53 53 52 51 51 50 49 46 44 37 33 27 18 12 5 2
44 48 50 48 52 54 55 55 55 60 63 68 78 84 84 83 72 67 62 55 52 48 46 42 48 50 53 55 55 54 53 51 48 45 42 38 31 27 16 7 5 8 11
44 47 47 49 53 54 53 53 53 59 64 71 78 86 85 80 72 68 64 58 53 52 51 52 53 54 57 59 59 57 54 51 47 42 37 31 26 19 9 10 11 12 11
40 42 45 50 53 48 51 49 56 63 68 73 79 85 85 80 70 66 64 60 54 52 53 54 58 57 60 62 63 59 55 48 41 35 30 25 20 12 12 15 14 11 10
40 42 46 47 49 46 46 47 56 65 68 74 81 87 85 78 68 65 61 58 54 55 55 55 60 62 65 63 60 54 47 40 33 27 23 20 14 12 17 18 15 12 7
38 41 44 46 43 45 44 50 59 62 68 78 85 86 86 79 70 68 65 60 57 54 54 55 57 61 62 58 52 46 38 30 24 20 17 14 13 16 21 19 15 11 5
40 43 42 44 42 41 46 54 60 61 70 77 85 86 87 83 76 70 65 61 59 56 55 58 62 63 60 54 46 37 29 22 17 14 12 11 14 20 21 18 15 10 5
36 36 40 39 40 43 46 51 60 63 71 79 85 92 84 80 79 74 67 62 59 55 55 60 63 61 54 46 37 29 21 15 10 8 8 13 19 22 20 15 13 9 4
35 37 37 37 39 43 45 52 61 65 70 79 88 88 85 81 78 74 66 57 54 54 57 61 59 54 45 37 30 22 15 8 4 6 12 17 20 20 17 13 10 7 6
36 33 37 37 40 43 51 56 61 64 73 82 87 88 84 81 77 71 61 56 55 57 59 59 54 45 37 30 23 16 9 1 5 11 15 17 18 17 12 9 8 7 9
31 32 35 40 42 46 53 59 62 69 77 82 87 87 83 80 71 64 56 54 55 57 58 54 47 38 31 24 17 11 4 4 10 14 15 16 15 12 9 8 8 10 13
31 30 37 41 44 50 57 58 64 75 78 86 91 89 83 80 70 62 56 55 56 58 54 48 39 33 25 18 12 7 5 8 11 13 13 14 10 7 7 8 10 13 16
27 29 37 40 42 51 57 59 70 75 80 88 88 85 83 74 67 60 57 55 56 54 49 41 34 27 20 14 9 6 6 10 11 11 11 10 6 5 7 9 12 16 20
28 35 39 41 46 52 57 65 70 76 81 87 87 83 81 68 63 58 56 55 54 50 43 35 28 22 17 11 8 6 8 9 9 10 9 7 4 5 8 11 16 18 17
35 41 42 47 45 53 60 66 74 75 83 89 88 82 73 63 59 55 54 54 50 46 37 30 23 18 13 10 7 6 8 8 7 7 7 5 5 8 12 15 16 12 16
30 34 41 40 50 57 64 69 74 78 87 87 82 78 64 60 56 53 52 51 46 39 32 24 19 15 12 9 7 8 8 6 5 3 3 5 9 12 14 15 12 14 19
38 40 41 46 54 61 65 70 76 81 85 80 76 71 60 56 53 51 51 47 42 33 26 19 15 13 11 8 7 9 8 6 3 2 3 8 11 13 11 12 13 17 22
Wind_Direction
295 295 299 302 303 306 308 312 314 317 320 323 321 321 323 323 327 328 328 328 326 324 321 311 308 306 304 304 302 301 299 297 294 292 289 284 281 280 279 277 276 275 274
297 299 300 302 303 305 310 312 315 320 321 321 320 321 322 324 327 327 328 328 325 323 320 311 310 308 313 314 312 310 308 307 303 300 296 292 288 286 285 284 282 281 279
297 299 300 300 303 307 311 313 317 319 320 318 319 321 322 327 327 329 329 328 325 323 319 311 307 306 308 308 310 312 311 309 307 305 303 301 298 295 292 290 288 284 282
293 297 298 300 304 308 312 314 317 318 318 317 319 323 326 329 330 330 328 328 325 323 317 305 297 297 301 300 302 305 306 305 303 302 301 299 298 298 296 294 290 288 286
292 294 297 301 305 309 311 314 316 316 317 317 322 326 329 332 333 330 329 328 326 326 317 306 298 296 299 301 302 304 304 303 303 303 302 301 300 300 299 297 295 293 290
293 295 298 304 308 310 311 312 314 316 317 321 325 327 328 331 333 332 331 329 329 327 322 311 301 299 298 298 300 301 302 302 304 305 304 305 304 304 302 299 297 297 295
291 297 303 307 306 307 307 311 314 317 319 324 326 327 328 329 333 332 333 329 330 326 321 317 314 308 303 300 299 300 304 305 306 305 305 305 306 307 305 302 301 298 295
289 291 296 303 302 304 307 311 315 317 327 329 332 333 331 334 333 333 334 329 328 324 320 317 316 315 314 312 311 309 307 305 304 304 305 306 309 307 306 306 302 300 297
282 287 294 300 302 302 307 311 315 316 324 334 334 335 335 335 334 334 333 327 324 323 323 322 318 316 312 309 308 307 306 304 303 304 306 308 310 307 308 306 301 301 303
277 284 290 297 300 303 309 312 312 321 324 331 338 336 338 337 336 335 331 324 322 321 323 320 318 318 317 314 312 310 307 305 304 305 306 308 308 306 306 301 301 298 55
276 280 288 298 300 304 309 310 315 321 328 333 340 340 339 339 334 334 330 323 320 320 319 317 314 314 314 313 311 310 308 306 305 304 304 304 301 303 295 272 204 129 114
274 277 286 294 299 305 306 310 315 326 329 332 336 339 340 338 336 333 329 324 319 319 320 319 317 316 317 316 314 311 308 305 303 302 299 297 294 291 253 205 161 139 125
268 273 280 290 298 302 309 317 321 325 327 334 336 339 339 338 332 331 329 325 318 317 318 319 318 319 318 318 316 312 309 307 302 297 293 287 284 256 204 182 161 154 141
269 276 280 293 299 304 311 319 330 331 332 332 338 341 339 335 332 331 328 325 321 318 317 318 318 320 320 319 315 312 309 306 299 293 285 278 262 212 189 175 169 168 148
270 275 285 293 299 304 308 323 328 328 328 331 337 337 341 337 330 330 329 327 326 322 320 320 321 321 321 320 319 316 314 308 299 287 278 263 219 188 180 176 177 179 171
269 271 285 292 299 303 311 323 324 326 329 335 336 336 337 337 333 330 329 328 327 325 325 326 325 326 327 325 322 319 316 308 295 283 264 224 188 180 178 179 185 190 210
272 278 285 291 298 300 313 323 328 326 330 332 336 336 334 333 332 331 329 328 327 327 328 329 330 328 328 327 326 324 320 311 293 263 215 182 174 177 178 184 193 203 247
270 276 281 291 295 302 314 326 327 324 329 329 333 336 335 334 333 332 330 330 329 330 330 329 329 330 330 331 331 330 325 311 269 194 173 169 174 179 181 193 204 224 265
268 276 281 288 296 303 316 324 321 324 328 328 333 335 334 334 334 332 332 333 334 333 332 331 331 332 334 337 341 342 340 330 164 162 163 171 177 181 187 202 221 254 286
271 273 283 294 296 309 323 319 321 322 325 327 330 330 331 332 331 331 329 330 332 333 333 332 334 336 339 343 350 356 20 126 148 156 164 172 177 185 199 224 253 278 297
274 285 296 294 296 316 318 314 319 322 324 329 328 330 330 332 332 332 331 333 334 335 334 335 338 342 345 352 2 20 81 130 146 155 163 168 174 191 225 254 275 296 308
280 287 294 300 309 315 310 313 319 320 326 329 330 330 332 332 333 332 332 334 335 335 336 339 343 348 353 2 19 55 108 134 144 154 161 169 180 217 257 282 300 310 315
287 294 289 298 309 309 308 314 317 319 325 325 329 329 330 330 331 331 333 334 335 336 340 343 348 356 2 16 39 80 116 130 139 154 166 180 216 265 292 306 312 320 327
289 288 295 299 305 304 307 313 317 319 322 326 327 330 330 330 331 333 334 335 336 339 344 346 355 5 15 30 52 86 115 119 135 156 174 211 264 295 305 315 324 329 330
289 303 304 307 302 303 308 312 315 319 320 325 326 329 330 331 332 334 334 336 338 342 346 351 3 17 27 38 60 104 112 111 126 162 226 278 297 308 321 324 325 331 332
282 300 305 303 300 304 308 315 315 316 323 323 325 328 328 331 333 334 335 337 341 346 350 358 15 26 30 46 91 111 106 97 82 24 312 320 327 327 328 327 327 327 336
Height
10732 10728 10723 10718 10711 10705 10696 10688 10680 10671 10661 10649 10637 10624 10612 10598 10585 10570 10556 10542 10530 10519 10510 10503 10497 10491 10487 10482 10477 10473 10469 10467 10464 10460 10460 10456 10452 10449 10445 10443 10439 10437 10434
10723 10719 10713 10709 10702 10695 10688 10679 10670 10661 10650 10638 10626 10614 10602 10587 10572 10556 10542 10529 10518 10508 10500 10493 10488 10483 10479 10473 10468 10465 10461 10458 10454 10450 10447 10444 10441 10438 10432 10429 10424 10421 10416
10714 10710 10705 10700 10693 10686 10679 10671 10662 10652 10641 10628 10615 10604 10590 10576 10560 10544 10530 10517 10506 10496 10490 10486 10480 10476 10472 10466 10461 10457 10452 10447 10442 10437 10431 10427 10423 10421 10416 10412 10407 10402 10397
10704 10701 10695 10690 10685 10678 10670 10661 10653 10643 10630 10616 10606 10594 10578 10564 10548 10533 10519 10506 10494 10486 10479 10477 10472 10467 10463 10458 10453 10449 10443 10437 10433 10427 10421 10414 10408 10403 10400 10393 10386 10383 10378
10694 10690 10686 10682 10676 10668 10661 10653 10643 10631 10620 10608 10596 10582 10568 10554 10538 10523 10508 10495 10484 10476 10470 10466 10462 10457 10452 10447 10442 10437 10430 10423 10418 10413 10406 10400 10393 10387 10381 10374 10367 10360 10356
10682 10678 10675 10672 10666 10659 10652 10643 10634 10623 10610 10599 10584 10573 10559 10544 10528 10512 10499 10485 10475 10466 10461 10456 10452 10446 10441 10437 10429 10423 10418 10409 10401 10396 10389 10384 10377 10371 10363 10357 10350 10344 10339
10672 10668 10664 10662 10657 10650 10642 10635 10625 10615 10602 10588 10576 10563 10548 10533 10518 10503 10490 10478 10467 10459 10452 10445 10441 10436 10429 10424 10419 10412 10404 10396 10387 10381 10375 10369 10362 10355 10349 10342 10336 10331 10327
10664 10661 10658 10654 10647 10641 10634 10626 10617 10606 10593 10580 10567 10553 10537 10522 10508 10494 10481 10470 10460 10452 10445 10437 10431 10424 10416 10409 10403 10397 10392 10384 10377 10369 10363 10355 10350 10343 10336 10330 10324 10320 10318
10653 10652 10650 10645 10639 10633 10627 10618 10608 10598 10584 10573 10559 10545 10528 10512 10499 10485 10474 10464 10455 10448 10438 10428 10420 10416 10409 10403 10395 10386 10379 10372 10364 10355 10349 10343 10338 10332 10327 10322 10318 10315 10313
10646 10643 10641 10637 10631 10625 10619 10610 10600 10590 10577 10565 10550 10536 10519 10504 10491 10476 10465 10455 10449 10440 10433 10424 10412 10406 10397 10389 10381 10373 10365 10357 10349 10343 10337 10330 10328 10324 10319 10316 10314 10313 10310
10638 10634 10632 10629 10623 10618 10611 10600 10592 10581 10569 10557 10543 10528 10510 10496 10479 10469 10458 10448 10439 10430 10422 10421 10407 10399 10389 10379 10369 10359 10350 10342 10336 10330 10325 10322 10319 10316 10313 10312 10312 10311 10311
10630 10627 10624 10622 10616 10611 10602 10593 10582 10572 10561 10549 10536 10519 10503 10485 10471 10458 10448 10437 10429 10419 10411 10402 10393 10385 10374 10363 10352 10343 10335 10328 10322 10318 10314 10312 10310 10309 10308 10309 10309 10310 10311
10621 10620 10618 10615 10609 10602 10594 10585 10575 10564 10553 10541 10528 10513 10495 10481 10465 10454 10440 10430 10419 10411 10401 10392 10380 10372 10360 10348 10335 10325 10317 10312 10308 10305 10303 10303 10302 10302 10304 10306 10308 10309 10310
10613 10613 10611 10607 10601 10595 10586 10578 10567 10556 10543 10532 10518 10502 10489 10472 10459 10449 10438 10425 10411 10400 10392 10384 10370 10358 10343 10332 10320 10311 10304 10298 10295 10294 10294 10294 10295 10296 10300 10303 10306 10308 10308
10606 10605 10603 10598 10593 10587 10579 10570 10559 10549 10536 10522 10509 10493 10478 10464 10449 10436 10424 10413 10402 10391 10381 10371 10361 10348 10333 10319 10308 10298 10291 10287 10285 10285 10286 10287 10289 10293 10298 10301 10304 10306 10307
10599 10597 10595 10590 10586 10579 10572 10562 10553 10542 10530 10515 10500 10485 10470 10456 10442 10428 10415 10402 10391 10380 10370 10358 10345 10331 10318 10307 10297 10289 10283 10280 10279 10280 10281 10283 10287 10292 10297 10300 10303 10305 10306
10591 10590 10587 10583 10578 10572 10565 10555 10547 10534 10522 10508 10494 10480 10463 10448 10433 10419 10405 10392 10381 10372 10361 10347 10334 10320 10309 10298 10289 10283 10278 10276 10276 10276 10279 10282 10287 10292 10296 10300 10302 10304 10305
10583 10582 10579 10575 10570 10564 10558 10550 10538 10527 10513 10502 10487 10472 10455 10439 10424 10410 10397 10385 10375 10365 10354 10340 10326 10314 10302 10293 10285 10279 10275 10274 10274 10276 10279 10283 10288 10293 10297 10300 10302 10303 10303
10575 10574 10571 10567 10562 10557 10550 10542 10532 10521 10507 10493 10478 10462 10447 10431 10415 10402 10390 10377 10365 10355 10344 10331 10319 10308 10298 10289 10282 10277 10275 10275 10276 10278 10281 10286 10290 10295 10298 10301 10302 10302 10301
10568 10566 10564 10560 10554 10549 10540 10532 10524 10512 10500 10486 10475 10461 10446 10428 10413 10401 10389 10375 10362 10350 10337 10325 10313 10303 10295 10288 10282 10279 10278 10278 10280 10282 10286 10290 10294 10297 10300 10301 10301 10300 10299
10561 10559 10557 10552 10547 10540 10533 10523 10513 10502 10490 10475 10462 10446 10431 10418 10404 10392 10380 10368 10356 10343 10330 10319 10309 10300 10293 10288 10284 10282 10282 10282 10284 10287 10291 10294 10297 10299 10300 10300 10300 10299 10297
10554 10552 10549 10545 10540 10533 10526 10516 10506 10495 10482 10468 10452 10436 10423 10409 10396 10384 10373 10361 10350 10338 10326 10315 10306 10298 10293 10289 10287 10286 10286 10287 10289 10292 10295 10297 10299 10299 10300 10300 10299 10296 10293
10547 10545 10542 10538 10533 10526 10518 10509 10499 10488 10474 10461 10446 10431 10417 10403 10392 10380 10368 10357 10345 10333 10322 10312 10304 10298 10294 10291 10290 10290 10290 10292 10294 10296 10298 10299 10300 10300 10300 10299 10297 10294 10291
10540 10539 10536 10531 10525 10518 10509 10501 10491 10479 10465 10453 10437 10422 10409 10397 10386 10374 10364 10353 10340 10329 10319 10311 10304 10299 10296 10294 10294 10294 10295 10296 10297 10299 10300 10301 10301 10300 10299 10297 10294 10291 10288
10534 10530 10527 10523 10517 10510 10502 10493 10482 10470 10459 10446 10430 10416 10404 10393 10381 10370 10360 10349 10337 10326 10318 10311 10305 10300 10299 10298 10298 10298 10299 10301 10301 10302 10302 10302 10301 10299 10298 10295 10292 10289 10286
10528 10524 10521 10516 10510 10503 10494 10484 10475 10463 10452 10438 10423 10410 10400 10388 10376 10366 10357 10345 10334 10325 10318 10311 10306 10303 10302 10302 10302 10303 10304 10305 10305 10304 10303 10302 10301 10299 10296 10294 10291 10288 10284